Preview of NWS' New Version of Forecast
This preview is not operational and should not be used for support decisions.
Latest weather observations around

Vicksburg, Vicksburg / Tallulah Regional Airport (KTVR)

Using English Units (Switch to International System of Units)
Date/ Time (CDT) Wind (mph) Vis. (mi) Weather Sky Cond. Temp (°F) Rel. Humidity Wind Chill (°F) Heat Index (°F) Pressure Precip. (in)
Air Dwpt 6 hour Altimeter (inHg) Sea level (inHg) 1 hr 3 hr 6 hr
Max Min
Aug 25 23:53 SSE 6 10 Mostly Cloudy BKN060 77 73     88%   79 29.87 29.88 0    
Aug 25 23:29 SSE 6 10 Partly Cloudy SCT026 SCT060 77 73     88%   79 29.87   0    
Aug 25 23:00 S 8 10 Light Rain BKN026 OVC060 78 73     85%   80 29.87   0    
Aug 25 22:53 S 9 10 Light Rain FEW015 SCT026 BKN060 78 73     85%   80 29.88 29.89 0    
Aug 25 22:03 S 8 10 Mostly Cloudy FEW017 SCT023 BKN032 78 73     85%   80 29.87        
Aug 25 21:53 S 7 10 Mostly Cloudy FEW017 BKN028 79 73     82%   82 29.87 29.89 0 0  
Aug 25 21:50 S 7 10 Light Rain FEW017 SCT028 79 73     84%   82 29.87   0    
Aug 25 21:25 S 9 10 Light Rain BKN026 OVC060 79 73     82%   82 29.87   0    
Aug 25 20:53 SSE 8 10 Light Rain OVC055 79 73     82%   82 29.85 29.87 0    
Aug 25 19:53 SSE 6 10 Cloudy FEW028 BKN033 OVC050 79 73     82%   82 29.84 29.85 0    
Aug 25 19:32 S 7 10 Light Rain BKN028 OVC050 80 73     79%   84 29.83   0    
Aug 25 18:53 S 9 10 Light Rain SCT060 BKN085 81 73     77%   86 29.84 29.85 0   0
Aug 25 17:53 S 8 10 Partly Cloudy SCT060 84 73     70%   90 29.84 29.86 0    
Aug 25 16:53 S 10 10 Mostly Cloudy SCT050 BKN060 BKN075 86 73     65%   93 29.85 29.87 0    
Aug 25 15:53 S 7 10 Mostly Cloudy SCT034 BKN043 BKN060 85 72     65%   91 29.85 29.86      
Aug 25 14:53 SSE 11 10 Mostly Clear FEW030 88 73     61%   96 29.87 29.88      
Aug 25 13:53 S 7 10 Mostly Clear FEW030 86 73     65%   93 29.9 29.92      
Aug 25 12:53 SSE 7 10 Clear CLR 86 72     63%   92 29.93 29.94      
Aug 25 11:53 SE 8 10 Clear CLR 85 72     65%   91 29.96 29.97      
Aug 25 10:53 SSE 8 10 Clear CLR 83 73     72%   89 29.96 29.98      
Aug 25 09:53 S 5 10 Clear CLR 80 73     79%   84 29.96 29.98      
Aug 25 08:53 SE 7 10 Mostly Clear FEW047 80 73     79%   84 29.95 29.96      
Aug 25 07:53 E 6 10 Clear CLR 77 73     88%   79 29.94 29.95      
Aug 25 06:53 SE 3 10 Clear CLR 75 72     90%   76 29.93 29.95      
Aug 25 05:53 E 3 10 Mostly Cloudy BKN090 76 73     91%   77 29.93 29.94      
Aug 25 04:53 ESE 3 10 Cloudy OVC090 76 73     91%   77 29.93 29.95      
Aug 25 03:53 E 6 10 Cloudy OVC085 76 73     91%   77 29.93 29.95      
Aug 25 02:53 Calm 10 Clear CLR 76 74     94%   78 29.94 29.96      
Aug 25 01:53 SSE 3 10 Mostly Cloudy BKN110 76 74     94%   78 29.95 29.97      
Aug 25 00:53 Calm 10 Mostly Cloudy BKN110 75 73     94%   77 29.97 29.98      
Aug 24 23:53 Calm 10 Mostly Clear FEW065 75 73     94%   77 29.98 29.99      
Aug 24 22:53 SE 3 10 Mostly Clear FEW085 76 73     91%   77 29.98 30      
Aug 24 21:53 ESE 3 10 Clear CLR 77 73     88%   79 29.98 30      
Aug 24 20:53 SSE 3 10 Partly Cloudy SCT048 78 75     90%   80 29.98 29.99      
Aug 24 19:53 S 3 10 Mostly Cloudy SCT050 BKN060 78 75     90%   80 29.96 29.98      
Aug 24 18:53 Calm 10 Cloudy OVC120 79 76     90%   83 29.94 29.96 0   0
Aug 24 18:38 NNW 3 10 Cloudy FEW023 OVC110 79 75     88%   83 29.94   0    
Aug 24 18:23 NNE 5 10 Thunderstorms SCT025 OVC095 80 75     85%   85 29.95   0    
Aug 24 18:15 NE 7 10 Thunderstorms BKN025 BKN042 OVC100 82 77     85%   90 29.95   0    
Aug 24 18:04 NE 7 8 Thunderstorms and Rain SCT027 BKN036 OVC080 82 77     85%   90 29.94   0    
Aug 24 17:53 SE 6 4 Rain FEW028 SCT037 BKN046 82 76     82%   89 29.94 29.96 0    
Aug 24 17:51 SE 8 5 Light Rain FEW028 SCT037 BKN060 82 75     79%   89 29.94   0    
Aug 24 16:53 Calm 10 Partly Cloudy FEW080 SCT095 85 78     80%   97 29.94 29.96      
Aug 24 15:53 Calm 10 Clear CLR 83 78     85%   93 29.93 29.94 0 0  
Aug 24 15:06 WNW 5 3 Light Rain and Fog/Mist FEW027 BKN048 OVC100 81 78     91%   89 29.95   0    
Aug 24 14:55 5 1.75 Heavy Rain FEW024 BKN040 OVC048 83 76     79%   91 29.96   0    
Aug 24 14:53 WSW 5 3 Light Rain FEW026 BKN040 OVC048 84 75     74%   92 29.96 29.97 0    
Aug 24 13:53   10 Partly Cloudy SCT048 92 74     56%   102 29.97 29.98      
Aug 24 12:53 NE 6 10 Mostly Cloudy SCT039 BKN050 90 73     58%   98 29.98 30      
Aug 24 11:53 SSE 3 10 Clear CLR 88 74     63%   97 30 30.02      
Aug 24 10:53 3 10 Mostly Clear FEW025 87 76     70%   98 30.02 30.03      
Aug 24 09:53 SE 3 10 Clear CLR 85 75     72%   93 30.01 30.02      
Aug 24 08:53 SSE 5 10 Clear CLR 82 75     79%   89 30.01 30.03      
Aug 24 07:53 SSE 3 10 Clear CLR 78 76     93%   80 30.01 30.03      
Aug 24 06:53 Calm 6 Fog/Mist FEW100 76 74     94%   78 30.01 30.03      
Aug 24 05:53 Calm 10 Cloudy OVC100 76 74     94%   78 30.01 30.02      
Aug 24 04:53 Calm 10 Cloudy OVC095 76 74     94%   78 30.01 30.02      
Aug 24 03:53 Calm 10 Mostly Cloudy BKN120 76 74     94%   78 30 30.01      
Aug 24 02:53 Calm 10 Clear CLR 75 73     94%   77 29.99 30      
Aug 24 01:53 ESE 3 10 Mostly Clear FEW100 76 73     91%   77 29.98 30      
Aug 24 00:53 Calm 3 Fog/Mist CLR 76 74     94%   78 29.97 29.98      
Aug 23 23:53 SSE 5 10 Clear CLR 76 74     94%   78 29.97 29.99      
Aug 23 22:53 S 3 10 Clear CLR 77 75     94%   79 29.97 29.98      
Aug 23 21:53 S 3 10 Clear CLR 78 75     90%   80 29.97 29.98      
Aug 23 20:53 SSE 3 10 Clear CLR 78 75     90%   80 29.97 29.98      
Aug 23 19:53 ESE 5 9 Clear CLR 79 74     85%   83 29.94 29.96      
Aug 23 18:53 SE 3 10 Clear CLR 80 74     82%   85 29.97 29.98     0
Aug 23 17:53 Calm 10 Clear CLR 82 73     74%   87 29.97 29.98      
Aug 23 17:07 SSE 3 10 Mostly Clear FEW055 82 73     74%   87 29.96        
Aug 23 16:53 SSE 3 10 Thunderstorms SCT055 81 72     74%   85 29.96 29.98 0    
Aug 23 16:40 SE 9 10 Mostly Cloudy BKN049 81 73     77%   86 29.97   0    
Aug 23 16:23 S 13 10 Thunderstorms and Rain FEW040 SCT060 SCT100 82 72     72%   87 29.97   0    
Aug 23 15:53 S 11 10 Partly Cloudy SCT038 90 75     62%   101 29.94 29.96   0  
Aug 23 15:30 SSE 8 4 Haze CLR 91 74     57%   101 29.94        
Aug 23 15:22 E 5 2.5 Haze FEW070 91 76     61%   103 29.94        
Aug 23 14:53 SE 8 10 Mostly Clear FEW036 88 76     68%   99 29.95 29.96 0    
Aug 23 13:53 ESE 5 10 Mostly Clear FEW039 89 74     61%   98 29.96 29.97      
Aug 23 12:53 NNE 6 10 Clear CLR 91 73     56%   100 29.97 29.98      
Aug 23 11:53 ENE 7 10 Mostly Clear FEW025 89 75     63%   99 30 30.01      
Aug 23 11:12 3 10 Partly Cloudy SCT021 87 76     70%   98 30.01        
Aug 23 10:53 5 10 Mostly Cloudy BKN020 85 76     75%   94 30.01 30.03      
Aug 23 10:50 ENE 6 10 Mostly Cloudy BKN020 84 75     74%   92 30.01        
Aug 23 09:53 Calm 10 Clear CLR 84 76     77%   93 30.02 30.03      
Aug 23 08:53 S 6 10 Clear CLR 81 75     82%   87 30.03 30.04      
Aug 23 07:53 S 3 10 Clear CLR 79 75     88%   83 30.01 30.02      
Aug 23 06:53 S 3 6 Fog/Mist CLR 76 74     94%   78 29.99 30      
Aug 23 05:53 Calm 6 Fog/Mist CLR 74 72     94%   75 29.97 29.98      
Aug 23 04:53 Calm 6 Fog/Mist CLR 75 73     94%   77 29.96 29.97      
Aug 23 03:53 Calm 9 Clear CLR 76 73     91%   77 29.96 29.98      
Aug 23 02:53 S 3 10 Clear CLR 76 73     91%   77 29.95 29.97      
Aug 23 01:53 SSE 3 10 Clear CLR 76 73     91%   77 29.97 29.98      
Aug 23 00:53 Calm 9 Clear CLR 77 74     90%   79 29.99 30      
Aug 22 23:53 Calm 10 Clear CLR 77 74     90%   79 29.99 30      
Aug 22 22:53 Calm 10 Clear CLR 78 74     87%   80 29.97 29.98      
May 14 14:53 SSE 5 10 Mostly Clear FEW055 92 68     46%   96 29.97 29.99      
May 14 09:53 5 10 Clear CLR 84 71     65%   89 30.04 30.06      
May 13 19:53 Calm 10 Clear CLR 79 72     79%   82 29.99 30.01      
May 13 07:53 S 6 7 Clear CLR 73 71     94%   74 30.11 30.13      
May 12 13:53 Calm 10 Partly Cloudy FEW050 SCT060 86 68     55%   89 30.07 30.08      
May 12 02:53 S 5 10 Clear CLR 69 63     81%     30.03 30.05      
May 11 14:53 SSE 11 10 Mostly Clear FEW065 86 60     42%   86 30.03 30.04      
Notice The following observation data may not be complete
Jun 12 04:19   10 Mostly Clear FEW022          %              
Jun 11 12:53 SE 7 10 Mostly Cloudy BKN040 BKN049 84 72     67%   90 30.05 30.06      
Jun 10 22:53 SE 6 10 Clear CLR 72 67     84%   73 30.01 30.02      
Jun 10 16:53 SSE 6 10 Mostly Clear FEW075 85 62     46%   86 29.97 29.98      
Jun 09 18:53 Calm 10 Clear CLR 81 58     45%   81 29.91 29.92      
Jun 09 02:53 Calm 8 Clear CLR 64 63     96%     29.92 29.94      
Jun 08 22:53 NNE 3 10 Clear   67 65     93%     29.94 29.95      
Jun 08 18:53 NNW 3 10 Clear CLR 78 57     48%   78 29.89 29.91      
Jun 07 19:53 NNW 5 10 Clear CLR 75 60     60%   75 29.89 29.91      
Jun 07 07:53 NNE 13 10 Clear CLR 73 66     79%   74 29.86 29.88      
Jun 06 02:53 Calm 10 Light Rain FEW110 73 71     94%   74 29.72 29.74 0